K0HYD Weather Reports


time (UTC)temp
C
wind
direction
speed
KPH
gust
KPH
rain 1hr
cm
rain 24hr
cm
rain mn
cm
humidity
%
barometer
mb
20260504043912 21 226 0.0 12.9 0.00 0.00 0.00 41 1006.4
20260504042411 21 222 0.0 9.7 0.00 0.00 0.00 39 1006.3
20260504035409 21 229 0.0 9.7 0.00 0.00 0.00 38 1006.5
20260504033908 20 141 1.6 8.0 0.00 0.00 0.00 39 1006.6
20260504032407 20 260 0.0 8.0 0.00 0.00 0.00 38 1006.6
20260504030906 21 132 0.0 1.6 0.00 0.00 0.00 37 1006.5
20260504025405 21 145 0.0 1.6 0.00 0.00 0.00 37 1006.4
20260504022403 22 165 0.0 4.8 0.00 0.00 0.00 36 1006.4
20260504020902 22 151 0.0 4.8 0.00 0.00 0.00 34 1006.4
20260504013900 23 150 0.0 4.8 0.00 0.00 0.00 33 1006.4
20260504012359 23 160 0.0 0.0 0.00 0.00 0.00 31 1006.4
20260504010859 25 198 0.0 0.0 0.00 0.00 0.00 30 1006.4
20260504005357 25 215 0.0 1.6 0.00 0.00 0.00 29 1006.6
20260504003857 26 196 0.0 1.6 0.00 0.00 0.00 27 1006.7
20260504000854 27 212 0.0 1.6 0.00 0.00 0.00 25 1007.0
20260503235353 27 248 0.0 1.6 0.00 0.00 0.00 24 1007.2
20260503233852 27 250 0.0 1.6 0.00 0.00 0.00 24 1007.3
20260503232351 28 257 0.0 1.6 0.00 0.00 0.00 23 1007.5
20260503225350 29 226 0.0 6.4 0.00 0.00 0.00 23 1007.7
20260503222348 30 225 0.0 3.2 0.00 0.00 0.00 21 1008.0
20260503220847 30 212 0.0 1.6 0.00 0.00 0.00 19 1008.1
20260503215346 30 226 0.0 3.2 0.00 0.00 0.00 20 1008.2
20260503213845 30 248 0.0 3.2 0.00 0.00 0.00 19 1008.5
20260503212344 30 263 0.0 3.2 0.00 0.00 0.00 19 1008.9
20260503210843 30 269 0.0 27.4 0.00 0.00 0.00 18 1009.1
20260503205342 30 212 0.0 17.7 0.00 0.00 0.00 18 1009.3
20260503203841 30 253 0.0 22.5 0.00 0.00 0.00 18 1009.6
20260503200839 30 236 0.0 1.6 0.00 0.00 0.00 20 1010.2
20260503193837 30 260 0.0 3.2 0.00 0.00 0.00 18 1010.8
20260503192337 30 276 0.0 3.2 0.00 0.00 0.00 21 1010.9
20260503190836 30 214 0.0 3.2 0.00 0.00 0.00 20 1011.1
20260503185335 30 274 0.0 1.6 0.00 0.00 0.00 18 1011.5
20260503182332 29 245 0.0 1.6 0.00 0.00 0.00 21 1011.9
20260503180831 29 242 0.0 12.9 0.00 0.00 0.00 20 1012.3
20260503175330 29 236 0.0 1.6 0.00 0.00 0.00 19 1012.7
20260503173830 29 253 9.7 17.7 0.00 0.00 0.00 20 1013.0
20260503172328 28 271 0.0 4.8 0.00 0.00 0.00 23 1013.2
20260503170827 28 256 0.0 1.6 0.00 0.00 0.00 28 1013.4
20260503130812 11 211 0.0 1.6 0.00 0.00 0.00 77 1015.9